Custer, SD

12:55 PM MDT on May 29, 2017 (GMT -0600)
Custer County

Weather History for KCUT - August, 2012

Change the Weather History Date:

Saturday, August 18, 2012

  Actual Average Record
Temperature  
Mean Temperature 59 °F 64 °F  
Max Temperature 72 °F 78 °F 92 °F (1959)
Min Temperature 45 °F 50 °F 34 °F (1966)
Degree Days  
Heating Degree Days 6 3  
Month to date heating degree days 43 42  
Since 1 June heating degree days 153 323  
Since 1 July heating degree days 49 103  
Cooling Degree Days 0 2  
Month to date cooling degree days 39 36  
Year to date cooling degree days 306 143  
Since 1 June cooling degree days 306 142  
Growing Degree Days 10 (Base 50)    
Moisture  
Dew Point 30 °F    
Average Humidity 38    
Maximum Humidity 53    
Minimum Humidity 22    
Precipitation  
Precipitation 0.00 in 0.07 in 1.19 in (1968)
Month to date precipitation 0.19 1.24  
Year to date precipitation 10.14 14.01  
Sea Level Pressure  
Sea Level Pressure 30.05 in    
Wind  
Wind Speed 6 mph (North)    
Max Wind Speed 18 mph    
Max Gust Speed 25 mph    
Visibility 10 miles    
Events      
T = Trace of Precipitation, MM = Missing Value Source: NWS Daily Summary

Daily Weather History Graph

Daily Weather History Graph

Search for Another Location

Airport or City:

Trip Planner

Search our weather history database for the weather conditions in past years. The results will help you decide how hot, cold, wet, or windy it might be!

Date:

Astronomy

Aug. 18, 2012 Rise Set
Actual Time 6:02 AM MDT 7:52 PM MDT
Civil Twilight 5:32 AM MDT 8:23 PM MDT
Nautical Twilight 4:54 AM MDT 9:00 PM MDT
Astronomical Twilight 4:13 AM MDT 9:41 PM MDT
Moon 7:18 AM MDT (8/18) 8:04 PM MDT (8/18)
Length of Visible Light 14h 51m
Length of Day
13h 49m
New Moon, 1% of the Moon is Illuminated
Aug 18
New Moon
Aug 24
First Quarter
Aug 31
Full
Sep 8
Last Quarter
Sep 15
New

Hourly Weather History & Observations

Time (MDT) Temp. Dew Point Humidity Pressure Visibility Wind Dir Wind Speed Gust Speed Precip Events Conditions
12:53 AM 53.1 °F 30.0 °F 41% 30.02 in 10.0 mi NW 3.5 mph - N/A   Clear
1:53 AM 54.0 °F 28.9 °F 38% 30.00 in 10.0 mi NW 4.6 mph - N/A   Clear
2:53 AM 50.0 °F 28.9 °F 44% 30.01 in 10.0 mi NW 3.5 mph - N/A   Clear
3:53 AM 51.1 °F 27.0 °F 39% 30.01 in 10.0 mi WNW 5.8 mph - N/A   Clear
4:53 AM 48.0 °F 28.0 °F 46% 30.02 in 10.0 mi WNW 3.5 mph - N/A   Clear
5:53 AM 50.0 °F 28.0 °F 43% 30.03 in 10.0 mi WNW 4.6 mph - N/A   Clear
6:53 AM 53.1 °F 28.9 °F 40% 30.04 in 10.0 mi Variable 3.5 mph - N/A   Clear
7:53 AM 59.0 °F 30.0 °F 33% 30.05 in 10.0 mi Variable 3.5 mph - N/A   Clear
8:53 AM 63.0 °F 28.9 °F 28% 30.06 in 10.0 mi North 10.4 mph - N/A   Clear
9:53 AM 64.9 °F 30.0 °F 27% 30.06 in 10.0 mi NNE 11.5 mph 18.4 mph N/A   Clear
10:53 AM 66.9 °F 30.0 °F 25% 30.07 in 10.0 mi ENE 10.4 mph 21.9 mph N/A   Clear
11:53 AM 66.9 °F 30.0 °F 25% 30.07 in 10.0 mi North 10.4 mph 17.3 mph N/A   Clear
12:53 PM 71.1 °F 30.0 °F 22% 30.05 in 10.0 mi Variable 5.8 mph - N/A   Partly Cloudy
1:53 PM 71.1 °F 30.0 °F 22% 30.03 in 10.0 mi NNE 13.8 mph 21.9 mph N/A   Clear
2:53 PM 72.0 °F 30.0 °F 21% 30.03 in 10.0 mi NNE 16.1 mph 23.0 mph N/A   Clear
3:53 PM 70.0 °F 28.9 °F 22% 30.03 in 10.0 mi North 9.2 mph 18.4 mph N/A   Clear
4:53 PM 68.0 °F 28.9 °F 23% 30.05 in 10.0 mi Variable 4.6 mph 23.0 mph N/A   Mostly Cloudy
5:53 PM 68.0 °F 30.0 °F 24% 30.05 in 10.0 mi Variable 3.5 mph - N/A   Mostly Cloudy
6:53 PM 64.0 °F 30.0 °F 28% 30.06 in 10.0 mi NE 5.8 mph - N/A   Partly Cloudy
7:53 PM 61.0 °F 28.9 °F 30% 30.06 in 10.0 mi NE 5.8 mph - N/A   Clear
8:53 PM 57.0 °F 30.0 °F 36% 30.08 in 10.0 mi ENE 3.5 mph - N/A   Clear
9:53 PM 55.9 °F 30.9 °F 39% 30.09 in 10.0 mi NE 5.8 mph - N/A   Clear
10:53 PM 54.0 °F 32.0 °F 43% 30.10 in 10.0 mi NE 4.6 mph - N/A   Clear
11:53 PM 46.9 °F 30.0 °F 52% 30.13 in 10.0 mi Calm Calm - N/A   Clear